Showing default

YURI (BSE), 10792

Orbit data source: Space-Track

YURI (BSE), 10792 is a payload satellite owned by NASDA (JP) in GEO that was launched on Fri, 07 Apr 1978 UTC via a DELTA 2914 launch vehicle from the Air Force Eastern Test Range (AFETR). Payloads include a variety of satellites, spacecraft, and rockets equipped with specific instruments for various scientific and technological missions. These include communications satellites like Starlink; space stations such as the ISS; scientific satellites like the Hubble; Earth observation satellites from companies like Planet Labs, Umbra, and HawkEye 360; GPS; miniature CubeSats for education and research; and military/defense satellites.

Not visible in the next 10 days
YURI (BSE) details
Identifier
10792, 1978-039A
Orbit
GEO
Last TLE update1 day ago
Origin
Flag of JPNASDA (JP / JPN)
ManufacturerGEVF/TOSH
MissionNon-operational Civil Communications
Bus & MotorBS, STAR 27
Mass678 kg wet, ~295 kg dry
Launch date (UTC)
1978-04-07 (47 years ago)
Launch vehicle
DELTA 2914
Launch site
Air Force Eastern Test Range (AFETR)
Object type
Payload
Rocket body
Debris
Shape & HBRHex Poly + 2 Pan, 3.09 m
Radar Cross Section2.497 m², Large (>1 m²)

Expand to show TLE details & history

TLE from 1 day ago
0 YURI (BSE)
1 10792U 78039A   24347.82226785 -.00000028  00000-0  00000-0 0  9997
2 10792   6.8476 289.8939 0021538 308.7901 208.0435  1.00344357113236
Epoch: 2024-12-12T19:44Z
Definitive object data (Epoch: 2024-12-12T19:44:03.942Z)
Latitude2.72353°
Longitude68.71934°
Altitude35,846.107 km
Speed3.07 km/s
True Right ascension05h 46m 55s
True Declination2° 43' 15"
Sunlit
Object was in daylight at TLE epoch
Visualization TLE readout
Latitude-2.36395°
Longitude111.99735°
Altitude35,795.195 km
Speed3.073 km/s
Apparent Right ascension08h 42m 39s
Apparent Declination-7° 02' 38"
Sunlit
Object is in daylight
Visualization observer readout
Local Sidereal Time21:05:07
Azimuth10.205° NNE
Elevation-56.744°
Doppler factor1
Orbital elements
Apogee altitude35,858.084 km
Perigee altitude35,676.538 km
Semi-major axis42,145.448 km
Eccentricity0.0021538
Inclination6.8476°
RAAN289.8939°
Arg. of periapsis308.7901°
True anomaly207.92774°
Mean anomaly208.0435°
Eccentric anomaly207.98559°
Mean motion0.25085 °/min
BSTARUnknown
Orbital period1435.11 mins
Loading historical data...
10792 neighbors
Authenticating...
Loading maneuver chart data...
Loading historical data...
Loading historical data...
Loading historical data...
Loading historical data...
Loading historical data...
Loading historical data...
Loading historical data...
Other satellites on launch #39 in the year 1978 (1978-04-07 UTC)

YURI (BSE) Visibility forecast

Observer location: undefined°, undefined

YURI (BSE) is not visible in the next 10 days
Span
Click to sort rows by Start time (UTC) header in descending order
Start Az.
Max El. time (UTC)
Max El. Az.
Max El.
End time (UTC)
End Az.
|